Fredericksburg, TX

4:55 AM CDT on August 27, 2016 (GMT -0500)
Fredericksburg

Weather History for KT82 - November, 2013

Change the Weather History Date:

Sunday, November 10, 2013

  Actual Average (KSAT) Record (KSAT)
Temperature  
Mean Temperature 56 °F 63 °F  
Max Temperature 64 °F 74 °F 89 °F (1947)
Min Temperature 47 °F 52 °F 28 °F (1977)
Degree Days  
Heating Degree Days 9 4  
Month to date heating degree days 35  
Since 1 July heating degree days 68  
Cooling Degree Days 0 3  
Month to date cooling degree days 34  
Year to date cooling degree days 3089  
Growing Degree Days 6 (Base 50)    
Moisture  
Dew Point 55 °F    
Average Humidity 91    
Maximum Humidity 98    
Minimum Humidity 80    
Precipitation  
Precipitation 0.00 in 0.08 in 1.39 in (1936)
Month to date precipitation 0.88  
Year to date precipitation 28.96  
Snow  
Snow 0.00 in - - ()
Month to date snowfall  
Since 1 July snowfall  
Since 1 September snowfall  
Snow Depth -    
Sea Level Pressure  
Sea Level Pressure 30.26 in    
Wind  
Wind Speed 1 mph (ESE)    
Max Wind Speed 6 mph    
Max Gust Speed -    
Visibility 8 miles    
Events Fog    
T = Trace of Precipitation, MM = Missing Value Source: NWS Daily Summary

Daily Weather History Graph

Daily Weather History Graph

Search for Another Location

Airport or City:

Trip Planner

Search our weather history database for the weather conditions in past years. The results will help you decide how hot, cold, wet, or windy it might be!

Date:

Astronomy

Nov. 10, 2013 Rise Set
Actual Time 6:57 AM CST 5:41 PM CST
Civil Twilight 6:32 AM CST 6:06 PM CST
Nautical Twilight 6:03 AM CST 6:35 PM CST
Astronomical Twilight 5:34 AM CST 7:03 PM CST
Moon 1:20 PM CST (11/10) 12:07 AM CST (11/10)
Length of Visible Light 11h 34m
Length of Day
10h 44m
First Quarter, 56% of the Moon is Illuminated
Nov 10
First Quarter
Nov 17
Full
Nov 25
Last Quarter
Dec 2
New
Dec 9
First Quarter

Hourly Weather History & Observations

Time (CST) Temp. Dew Point Humidity Pressure Visibility Wind Dir Wind Speed Gust Speed Precip Events Conditions
12:15 AM 55.6 °F 53.4 °F 92% 30.19 in 10.0 mi Calm Calm - N/A   Overcast
12:35 AM 53.6 °F 51.8 °F 94% 30.19 in 10.0 mi Calm Calm - N/A   Overcast
12:55 AM 54.0 °F 52.7 °F 95% 30.18 in 10.0 mi Calm Calm - N/A   Scattered Clouds
1:15 AM 52.0 °F 50.7 °F 95% 30.18 in 7.0 mi Calm Calm - N/A   Clear
1:35 AM 51.3 °F 50.4 °F 97% 30.19 in 4.0 mi Calm Calm - N/A   Clear
1:55 AM 50.0 °F 49.3 °F 97% 30.19 in 5.0 mi Calm Calm - N/A   Clear
2:15 AM 50.9 °F 50.0 °F 97% 30.19 in 10.0 mi Calm Calm - N/A   Mostly Cloudy
2:35 AM 52.7 °F 51.8 °F 97% 30.19 in 10.0 mi Calm Calm - N/A   Overcast
2:55 AM 54.1 °F 52.9 °F 95% 30.19 in 10.0 mi Calm Calm - N/A   Overcast
3:15 AM 54.5 °F 52.9 °F 94% 30.19 in 10.0 mi Calm Calm - N/A   Overcast
3:35 AM 54.9 °F 53.6 °F 96% 30.20 in 10.0 mi Calm Calm - N/A   Overcast
3:55 AM 55.6 °F 54.0 °F 94% 30.20 in 10.0 mi Calm Calm - N/A   Overcast
4:15 AM 55.9 °F 54.3 °F 94% 30.20 in 10.0 mi Calm Calm - N/A   Overcast
4:35 AM 55.9 °F 54.5 °F 95% 30.21 in 10.0 mi Calm Calm - N/A   Overcast
4:55 AM 56.7 °F 55.0 °F 94% 30.21 in 10.0 mi Calm Calm - N/A   Overcast
5:15 AM 56.8 °F 55.4 °F 95% 30.22 in 10.0 mi Calm Calm - N/A   Overcast
5:35 AM 56.8 °F 55.4 °F 95% 30.23 in 10.0 mi Calm Calm - N/A   Overcast
5:55 AM 57.2 °F 55.6 °F 94% 30.24 in 10.0 mi Calm Calm - N/A   Overcast
6:15 AM 57.4 °F 55.8 °F 94% 30.24 in 10.0 mi Calm Calm - N/A   Overcast
6:35 AM 57.6 °F 55.9 °F 94% 30.24 in 10.0 mi Calm Calm - N/A   Overcast
6:55 AM 57.7 °F 55.9 °F 94% 30.25 in 10.0 mi Calm Calm - N/A   Overcast
7:15 AM 57.6 °F 55.9 °F 94% 30.26 in 10.0 mi Calm Calm - N/A   Overcast
7:35 AM 57.7 °F 56.1 °F 94% 30.27 in 10.0 mi Calm Calm - N/A   Overcast
7:55 AM 58.1 °F 56.3 °F 94% 30.28 in 10.0 mi Calm Calm - N/A   Overcast
8:15 AM 58.3 °F 56.3 °F 93% 30.28 in 10.0 mi East 3.5 mph - N/A   Overcast
8:35 AM 58.5 °F 56.7 °F 94% 30.29 in 5.0 mi Calm Calm - N/A   Overcast
8:55 AM 59.0 °F 57.0 °F 93% 30.30 in 5.0 mi East 4.6 mph - N/A   Overcast
9:15 AM 59.0 °F 57.2 °F 94% 30.31 in 3.0 mi East 3.5 mph - N/A   Overcast
9:35 AM 59.2 °F 57.4 °F 94% 30.31 in 4.0 mi ESE 3.5 mph - N/A   Overcast
9:55 AM 59.5 °F 57.6 °F 93% 30.32 in 5.0 mi ESE 3.5 mph - N/A   Overcast
10:15 AM 59.9 °F 57.6 °F 92% 30.32 in 7.0 mi Calm Calm - N/A   Overcast
10:35 AM 60.4 °F 57.2 °F 89% 30.32 in 10.0 mi Calm Calm - N/A   Overcast
10:55 AM 61.0 °F 57.6 °F 88% 30.31 in 10.0 mi Calm Calm - N/A   Overcast
11:15 AM 61.2 °F 57.4 °F 87% 30.31 in 10.0 mi Calm Calm - N/A   Overcast
11:35 AM 61.7 °F 57.4 °F 86% 30.31 in 10.0 mi Calm Calm - N/A   Overcast
11:55 AM 61.9 °F 57.4 °F 85% 30.30 in 10.0 mi Calm Calm - N/A   Overcast
12:15 PM 62.2 °F 57.9 °F 86% 30.29 in 10.0 mi ENE 3.5 mph - N/A   Overcast
12:35 PM 62.4 °F 57.7 °F 85% 30.28 in 10.0 mi Calm Calm - N/A   Overcast
12:55 PM 62.6 °F 58.1 °F 85% 30.28 in 10.0 mi East 3.5 mph - N/A   Overcast
1:15 PM 63.0 °F 57.9 °F 84% 30.26 in 10.0 mi Calm Calm - N/A   Overcast
1:35 PM 63.5 °F 57.9 °F 82% 30.26 in 10.0 mi Calm Calm - N/A   Overcast
1:55 PM 63.5 °F 57.9 °F 82% 30.25 in 10.0 mi ENE 3.5 mph - N/A   Overcast
2:15 PM 63.9 °F 57.9 °F 81% 30.25 in 10.0 mi East 3.5 mph - N/A   Overcast
2:35 PM 63.7 °F 58.1 °F 82% 30.25 in 10.0 mi NE 3.5 mph - N/A   Overcast
2:55 PM 64.0 °F 58.1 °F 81% 30.25 in 10.0 mi East 3.5 mph - N/A   Overcast
3:15 PM 64.0 °F 57.9 °F 80% 30.25 in 10.0 mi ESE 3.5 mph - N/A   Overcast
3:35 PM 63.7 °F 57.9 °F 81% 30.25 in 10.0 mi East 5.8 mph - N/A   Overcast
3:55 PM 63.5 °F 57.7 °F 81% 30.25 in 10.0 mi East 4.6 mph - N/A   Overcast
4:15 PM 63.1 °F 57.6 °F 82% 30.24 in 10.0 mi ESE 4.6 mph - N/A   Overcast
4:35 PM 63.0 °F 57.4 °F 82% 30.24 in 10.0 mi SE 3.5 mph - N/A   Overcast
4:55 PM 62.8 °F 57.6 °F 83% 30.24 in 10.0 mi SSE 3.5 mph - N/A   Overcast
5:15 PM 62.6 °F 57.4 °F 83% 30.24 in 10.0 mi SSE 4.6 mph - N/A   Overcast
5:35 PM 61.9 °F 57.2 °F 85% 30.25 in 10.0 mi SE 3.5 mph - N/A   Overcast
5:55 PM 60.4 °F 56.7 °F 87% 30.24 in 10.0 mi Calm Calm - N/A   Scattered Clouds
6:15 PM 59.0 °F 56.3 °F 91% 30.25 in 10.0 mi SSE 3.5 mph - N/A   Scattered Clouds
6:35 PM 58.6 °F 56.1 °F 91% 30.26 in 10.0 mi Calm Calm - N/A   Mostly Cloudy
6:55 PM 59.0 °F 56.1 °F 90% 30.27 in 10.0 mi Calm Calm - N/A   Overcast
7:15 PM 58.6 °F 55.8 °F 90% 30.28 in 10.0 mi Calm Calm - N/A   Overcast
7:35 PM 59.0 °F 55.9 °F 90% 30.28 in 10.0 mi Calm Calm - N/A   Overcast
7:55 PM 59.0 °F 55.8 °F 89% 30.28 in 10.0 mi Calm Calm - N/A   Overcast
8:15 PM 58.3 °F 55.4 °F 90% 30.28 in 10.0 mi Calm Calm - N/A   Mostly Cloudy
8:35 PM 55.6 °F 53.4 °F 92% 30.28 in 10.0 mi Calm Calm - N/A   Clear
8:55 PM 53.6 °F 52.5 °F 96% 30.28 in 10.0 mi Calm Calm - N/A   Clear
9:15 PM 52.2 °F 51.3 °F 97% 30.29 in 0.2 mi Calm Calm - N/A Fog Fog
9:35 PM 51.4 °F 50.7 °F 97% 30.28 in 1.2 mi Calm Calm - N/A   Scattered Clouds
9:55 PM 52.0 °F 51.3 °F 97% 30.28 in 1.2 mi Calm Calm - N/A   Mist
10:15 PM 49.6 °F 48.9 °F 97% 30.28 in 0.5 mi Calm Calm - N/A Fog Fog
10:35 PM 50.0 °F 49.3 °F 97% 30.28 in 0.8 mi Calm Calm - N/A   Mist
10:55 PM 48.7 °F 48.2 °F 98% 30.28 in 10.0 mi Calm Calm - N/A   Clear
11:15 PM 48.7 °F 48.2 °F 98% 30.28 in 5.0 mi NW 3.5 mph - N/A   Clear
11:35 PM 48.4 °F 47.8 °F 98% 30.28 in 5.0 mi Calm Calm - N/A   Clear
11:55 PM 47.7 °F 46.9 °F 97% 30.27 in 4.0 mi Calm Calm - N/A   Clear